Flag for Austria Weather past 2 weeks in Krems, Lower Austria, Austria

Now
75 °F

Mild.


Feels Like: 78 °F
Forecast: 62 / 98 °F
Wind: 3 mph from Northeast

Location: Retz

Current Time: Jul 6, 2015 at 5:24:01 AM

Latest Report: Jul 6, 2015 at 4:00 AM


Visibility: N/A

Pressure: 29.95 "Hg

Humidity: 43%

Dew point: 51 °F

Location of KremsLocation

Historic Weather in Krems — Graph

°F

Krems temperature yesterday

Maximum temperature yesterday: 94 °F (at 5:00 PM)
Minimum temperature yesterday: 68 °F (at 6:00 AM)
Average temperature yesterday: 83 °F

Past Weeks' High & Low Weather Summary

 TemperatureHumidityPressure
High94 °F (Jul 5, 5:00 PM)99% (Jun 23, 3:00 AM)30.29 "Hg (Jun 23, 3:00 AM)
Low49 °F (Jun 24, 6:00 AM)21% (Jul 5, 4:00 PM)29.72 "Hg (Jun 23, 4:00 AM)
Average68 °F57%30.09 "Hg
* Reported Jun 21 4:00 AM — Jul 6 4:00 AM, Krems, Weather by CustomWeather, © 2015

Note: Actual official high and low records may vary slightly from our data, if they occured in-between our weather recording intervals... More about our weather records

Advertising

Krems weather history for previous 24 hours

 ConditionsComfort  
Time TempWeatherWind HumidityBarometerVisibility
4:00 AM
Mon, Jul 6
75 °FMild.3 mph43%29.95 "HgN/A
3:00 AM77 °FMild.1 mph40%29.95 "HgN/A
2:00 AM77 °FMild.1 mph40%29.94 "HgN/A
1:00 AM78 °FPleasantly warm.3 mph37%29.95 "HgN/A
12:00 AM78 °FPleasantly warm.5 mph36%29.95 "HgN/A
11:00 PM
Sun, Jul 5
79 °FWarm.5 mph41%29.96 "HgN/A
10:00 PM83 °FPleasantly warm.3 mph36%29.94 "HgN/A
9:00 PM86 °FPleasantly warm.2 mph31%29.93 "HgN/A
8:00 PM89 °FPassing clouds.3 mph29%29.95 "Hg16 mi
7:00 PM92 °FHot.3 mph23%29.95 "HgN/A
6:00 PM93 °FExtremely hot.5 mph21%29.95 "HgN/A
5:00 PM94 °FExtremely hot.3 mph21%29.96 "HgN/A
4:00 PM94 °FExtremely hot.3 mph21%29.97 "HgN/A
3:00 PM93 °FExtremely hot.3 mph22%29.98 "HgN/A
2:00 PM92 °FPassing clouds.3 mph23%30.01 "Hg16 mi
1:00 PM91 °FHot.3 mph27%30.02 "HgN/A
12:00 PM88 °FHot.5 mph31%30.03 "HgN/A
11:00 AM85 °FPleasantly warm.2 mph39%30.06 "HgN/A
10:00 AM80 °FWarm.1 mph48%30.08 "HgN/A
9:00 AM77 °FWarm.1 mph49%30.09 "HgN/A
8:00 AM74 °FPassing clouds.2 mph56%30.09 "Hg12 mi
7:00 AM69 °FPassing clouds.1 mph65%30.10 "Hg12 mi
6:00 AM68 °FMild.3 mph64%30.10 "HgN/A
Weather by CustomWeather, © 2015

See weather overviewHow to use our weather pages